This is the latest recevied weather packets stored in our database for station/object K7CTM. If no packets are shown the sender has not sent any weather packets the latest 10 day(s).
| Time | Temp. | Humidity | Pressure | Rain* | Wind** | Luminosity | Snow |
|---|---|---|---|---|---|---|---|
| 1777665738 | 19.44° C | 20% | 1028.7 hPa | 0 mm | - | 804 W/m² | - |
| 1777665435 | 19.44° C | 28% | 1028.8 hPa | 0 mm | - | 807 W/m² | - |
| 1777665131 | 18.33° C | 24% | 1028.9 hPa | 0 mm | - | 804 W/m² | - |
| 1777664827 | 19.44° C | 21% | 1028.8 hPa | 0 mm | - | 814 W/m² | - |
| 1777664522 | 19.44° C | 26% | 1029 hPa | 0 mm | - | 818 W/m² | - |
| 1777664220 | 18.89° C | 22% | 1029.1 hPa | 0 mm | - | 822 W/m² | - |
| 1777663918 | 18.33° C | 22% | 1029 hPa | 0 mm | - | 826 W/m² | - |
| 1777663615 | 18.89° C | 21% | 1029.1 hPa | 0 mm | - | 831 W/m² | - |
| 1777663313 | 18.89° C | 23% | 1029 hPa | 0 mm | - | 835 W/m² | - |
| 1777663010 | 18.89° C | 21% | 1029.2 hPa | 0 mm | - | 839 W/m² | - |
| 1777662707 | 18.89° C | 24% | 1029.1 hPa | 0 mm | - | 833 W/m² | - |
| 1777662403 | 18.33° C | 21% | 1029.1 hPa | 0 mm | - | 845 W/m² | - |
| 1777662098 | 17.78° C | 24% | 1029.2 hPa | 0 mm | - | 846 W/m² | - |
| 1777661794 | 17.78° C | 23% | 1029.2 hPa | 0 mm | - | 845 W/m² | - |
| 1777661490 | 18.33° C | 24% | 1029.2 hPa | 0 mm | - | 833 W/m² | - |
| 1777661187 | 17.78° C | 23% | 1029.2 hPa | 0 mm | - | 840 W/m² | - |
| 1777660881 | 17.78° C | 26% | 1029.6 hPa | 0 mm | - | 838 W/m² | - |
| 1777660578 | 17.78° C | 24% | 1029.2 hPa | 0 mm | - | 839 W/m² | - |
| 1777660275 | 17.78° C | 24% | 1029.4 hPa | 0 mm | - | 837 W/m² | - |
| 1777659972 | 17.78° C | 26% | 1029.5 hPa | 0 mm | - | 832 W/m² | - |
| 1777659669 | 17.22° C | 25% | 1029.6 hPa | 0 mm | - | 829 W/m² | - |
| 1777659366 | 18.33° C | 26% | 1029.6 hPa | 0 mm | - | 820 W/m² | - |
| 1777659062 | 18.33° C | 26% | 1029.6 hPa | 0 mm | - | 823 W/m² | - |
| 1777658761 | 17.78° C | 25% | 1029.5 hPa | 0 mm | - | 816 W/m² | - |
| 1777658456 | 17.78° C | 27% | 1029.7 hPa | 0 mm | - | 809 W/m² | - |
* Rain latest hour (hover to see other rain measurements)
** Current wind speed in m/s (hover to see current wind gust speed)